Wind_Speed
18 17 17 16 16 16 16 17 18 18 18 18 18 18 18 18 18 19 19 19 19 19 20 20 20 20 20 20 20 20 20 20 20 20 21 21 20 21 21 21 21 21 20
17 17 16 16 16 16 17 18 18 18 18 18 18 19 19 19 19 20 19 19 20 20 20 21 21 21 21 21 21 22 21 21 21 21 22 22 22 22 22 22 21 22 22
17 17 17 17 17 17 18 18 18 19 18 19 19 19 20 20 20 20 20 20 20 20 21 21 22 22 21 22 22 23 23 22 22 22 22 23 23 23 23 23 23 23 23
18 18 19 19 19 19 19 19 19 19 19 19 20 20 20 20 20 20 20 21 21 21 22 22 23 23 22 23 23 23 24 24 24 25 24 23 23 23 23 24 24 24 23
19 19 19 19 19 20 20 20 20 19 19 19 19 20 20 21 21 21 21 21 22 22 23 23 24 23 23 24 24 24 24 25 25 25 25 24 23 24 24 24 24 24 24
20 20 19 20 20 21 21 21 21 21 21 21 21 21 21 21 22 22 22 23 23 23 24 24 24 24 24 25 25 25 25 25 25 25 25 24 24 25 24 24 24 24 24
21 21 20 21 21 21 22 22 22 22 22 22 22 22 22 22 23 24 24 24 24 24 24 25 25 25 25 25 25 25 25 25 25 25 25 25 25 24 25 25 25 24 24
22 22 22 22 23 22 23 23 23 23 23 23 23 23 24 24 24 24 25 25 25 25 26 25 25 26 26 26 26 26 26 26 27 27 26 26 26 26 26 26 26 25 24
22 22 23 23 23 23 23 23 23 24 24 24 25 25 25 26 26 27 27 27 27 26 26 27 26 26 27 27 27 27 27 28 29 29 28 28 28 27 27 27 27 27 26
23 23 23 24 24 24 24 23 23 24 24 25 26 26 27 27 27 28 28 28 28 28 28 27 28 28 28 28 28 28 28 29 29 30 29 29 28 27 27 28 29 28 28
24 24 24 25 25 25 25 25 25 26 26 27 27 27 28 28 28 28 28 29 29 29 29 29 29 29 29 29 29 29 29 30 31 31 31 30 30 30 29 29 30 30 29
25 26 26 26 27 26 27 27 28 28 28 28 29 29 29 28 28 29 29 30 30 30 30 30 30 30 30 30 30 30 31 31 31 31 31 31 31 31 31 31 31 31 31
27 27 28 28 27 28 28 29 29 30 30 30 30 30 30 29 29 29 30 30 30 30 30 30 31 31 31 31 32 31 32 32 32 32 32 33 33 33 32 31 31 32 31
28 28 28 28 28 29 29 30 31 31 31 31 31 31 30 30 29 30 30 30 30 31 31 31 31 32 32 32 32 32 32 32 32 32 33 33 34 34 33 33 33 33 33
29 29 29 29 29 30 30 31 31 32 32 32 32 31 30 30 30 30 30 30 31 32 32 32 32 32 32 32 32 33 33 33 33 32 33 33 34 34 34 34 33 33 33
30 30 30 30 31 31 31 31 32 32 32 32 32 31 31 31 31 31 31 31 31 31 32 32 32 32 32 32 33 33 33 33 33 33 33 33 33 33 34 34 34 33 33
31 30 30 30 31 31 31 31 32 32 32 32 32 32 32 32 33 33 33 32 32 32 32 32 32 32 32 32 32 32 32 32 32 32 32 32 32 33 34 34 34 34 33
31 31 31 31 31 32 32 33 33 32 33 33 33 34 33 34 33 33 34 34 33 32 32 32 32 32 32 32 32 32 32 32 32 32 32 32 32 32 32 33 33 34 34
32 32 32 32 32 33 33 33 33 34 34 34 34 33 33 33 33 33 34 34 33 33 32 32 32 32 32 32 32 32 32 33 33 33 33 33 32 32 32 32 33 33 34
33 33 34 34 33 33 33 33 34 34 34 34 34 33 33 33 33 34 33 33 33 33 33 32 32 32 32 32 32 32 32 32 33 33 33 33 33 33 33 33 33 33 33
34 34 34 34 34 34 33 33 33 33 33 33 33 32 32 32 33 33 33 33 32 32 32 32 32 32 33 32 32 32 32 32 32 33 33 33 33 33 34 33 33 32 32
33 34 34 34 33 33 33 33 33 33 33 32 32 32 32 32 32 32 33 34 33 33 32 32 32 32 33 33 32 32 32 32 32 33 33 33 33 33 33 32 33 33 33
33 33 33 33 33 33 34 34 34 33 33 32 32 33 33 33 33 33 34 34 33 32 32 32 32 32 32 32 32 31 31 31 32 32 32 32 32 32 32 33 33 33 33
33 33 33 33 33 33 33 33 33 33 32 32 33 33 34 34 34 34 34 33 33 33 33 33 32 31 31 31 31 31 31 31 32 32 32 32 32 32 32 33 33 34 34
33 33 33 33 33 33 33 33 33 32 32 32 33 33 33 34 34 34 33 33 33 33 33 32 32 32 31 31 31 31 31 31 31 31 31 31 32 32 32 33 34 34 34
33 33 33 33 33 33 33 32 32 32 32 32 32 32 33 33 33 34 33 33 33 33 33 33 32 32 32 32 31 31 31 31 31 30 31 31 32 32 33 33 33 34 34
Wind_Direction
289 289 290 291 292 295 299 300 299 297 295 293 292 290 288 287 284 282 281 278 276 274 272 272 272 272 272 272 272 273 272 271 272 273 273 274 274 275 275 275 275 274 274
287 288 287 287 291 295 298 300 299 296 294 293 291 288 287 285 283 282 280 279 277 274 272 272 272 273 272 272 273 273 272 271 272 274 273 273 274 275 275 275 276 274 273
285 287 288 289 292 295 297 298 297 294 293 293 292 288 287 285 284 282 279 279 278 276 273 272 272 273 271 271 272 273 272 271 272 273 273 272 272 274 275 274 276 274 273
282 284 287 290 291 294 295 294 294 293 293 294 292 289 287 286 285 282 279 278 278 276 274 273 273 272 271 271 272 273 272 272 272 273 273 273 272 273 274 273 274 274 273
283 283 284 287 289 292 293 293 293 292 291 292 292 290 287 286 284 282 280 279 277 276 276 274 273 272 271 271 272 272 272 273 273 274 273 273 273 272 271 272 272 273 273
282 282 283 286 289 291 292 292 292 291 291 291 290 288 286 285 284 282 281 279 278 277 275 274 273 272 272 272 272 272 272 273 274 273 272 273 275 274 272 272 271 272 273
281 282 283 286 288 290 291 293 293 293 293 291 291 289 286 284 284 283 282 280 278 277 278 276 273 272 272 271 271 271 271 272 272 273 274 273 273 274 273 271 270 271 272
281 282 283 285 287 289 291 292 293 294 294 292 291 291 289 286 284 283 282 281 280 279 278 277 274 272 271 270 271 270 271 271 273 274 275 275 272 272 272 270 270 270 271
282 282 283 283 285 287 290 292 293 295 295 295 294 292 290 287 285 283 283 282 280 280 279 277 274 272 271 270 271 270 271 272 273 274 275 276 275 273 272 270 269 269 271
281 282 282 282 283 287 289 292 294 294 294 295 296 294 292 289 286 284 284 282 280 279 278 277 275 273 272 272 272 272 272 273 273 273 273 274 274 273 271 270 270 269 270
281 281 281 281 283 285 288 290 292 294 295 296 296 296 295 292 288 285 284 282 280 278 277 277 275 274 274 273 273 273 273 273 272 272 271 271 272 272 270 269 270 269 269
281 281 282 282 284 285 286 288 291 293 294 295 296 296 295 293 290 288 286 284 282 280 278 277 275 275 274 273 274 274 273 272 271 271 271 271 272 272 271 270 269 269 269
282 281 282 282 283 284 286 287 289 291 292 293 295 295 294 293 291 291 289 286 283 281 280 278 276 275 274 274 273 273 273 272 272 271 271 270 271 271 270 270 269 269 269
281 282 282 281 283 285 286 287 288 289 290 292 294 294 293 291 290 290 289 287 285 283 281 280 278 276 276 277 275 273 274 274 274 273 272 271 270 270 270 270 268 268 269
281 282 282 282 284 285 286 287 289 289 290 291 293 292 291 291 291 291 290 287 285 283 281 280 280 278 276 277 276 274 274 275 275 274 274 273 271 271 270 269 269 269 269
281 282 283 284 285 286 286 287 288 289 291 291 292 293 292 291 290 292 290 286 285 285 284 282 281 280 277 276 276 275 275 274 274 274 274 273 271 270 270 269 269 269 269
280 282 284 285 285 286 287 287 289 289 290 292 293 293 293 292 291 292 292 290 287 286 286 285 283 281 279 277 277 276 275 274 274 274 274 273 271 269 269 268 267 266 268
280 282 283 285 285 286 287 288 289 289 290 291 292 292 292 292 292 292 292 292 290 288 287 285 283 281 279 278 277 276 275 275 275 275 274 273 272 271 270 269 269 268 268
280 283 284 285 286 287 288 289 289 290 291 291 291 291 291 292 292 292 293 292 290 288 286 285 284 282 279 278 277 276 276 275 275 275 273 272 272 272 271 271 270 270 269
281 283 285 286 287 288 289 289 290 291 291 291 291 290 291 292 292 293 293 293 292 289 287 285 284 282 280 278 278 277 276 276 275 274 272 271 271 272 270 270 271 271 270
281 283 285 286 286 287 289 290 291 291 291 291 291 291 291 291 292 293 292 292 291 291 289 287 285 283 281 279 278 277 277 277 276 274 272 271 272 272 271 271 271 270 270
281 282 283 285 286 287 288 289 290 291 292 291 291 291 292 293 294 294 294 294 292 291 290 288 287 285 283 280 279 279 277 276 276 274 272 271 271 272 272 271 270 270 270
281 282 282 284 285 286 287 288 289 290 291 291 290 291 291 292 294 294 294 293 292 292 290 289 288 286 284 282 280 280 278 277 277 276 273 271 271 271 270 271 270 269 270
281 282 283 284 286 286 287 288 289 289 290 291 291 292 292 292 293 294 293 292 291 291 290 288 287 286 283 282 280 280 281 279 278 277 274 271 270 270 271 270 269 268 268
279 281 283 284 285 286 287 288 289 290 290 290 291 292 293 293 293 294 294 292 292 291 289 287 287 285 284 283 282 281 281 281 280 277 274 271 270 271 272 271 269 268 267
280 281 282 284 285 286 286 288 289 290 291 291 292 293 294 295 295 295 294 294 293 291 290 287 285 285 283 282 282 281 281 281 281 279 276 273 272 271 272 272 271 269 268
Height
5810 5809 5807 5806 5805 5803 5801 5799 5797 5795 5793 5792 5790 5788 5787 5785 5784 5783 5782 5782 5781 5781 5781 5781 5781 5781 5781 5781 5781 5781 5781 5781 5781 5781 5780 5779 5778 5778 5777 5777 5776 5775 5775
5805 5803 5802 5801 5800 5798 5797 5795 5792 5790 5788 5787 5785 5783 5782 5780 5779 5777 5776 5776 5775 5775 5775 5775 5775 5775 5775 5775 5775 5775 5775 5775 5775 5774 5773 5773 5772 5771 5771 5770 5770 5769 5769
5799 5798 5797 5796 5794 5793 5791 5789 5787 5785 5783 5781 5780 5778 5776 5775 5773 5771 5770 5770 5769 5769 5769 5769 5769 5769 5769 5769 5769 5768 5768 5768 5768 5768 5767 5766 5765 5765 5764 5763 5763 5762 5762
5794 5793 5792 5791 5789 5788 5786 5784 5782 5780 5778 5776 5774 5772 5771 5769 5767 5766 5765 5764 5763 5763 5763 5763 5763 5763 5762 5762 5762 5762 5761 5761 5761 5760 5760 5759 5758 5758 5757 5756 5756 5755 5755
5788 5787 5786 5785 5784 5782 5781 5779 5776 5774 5772 5770 5768 5767 5765 5763 5762 5760 5759 5758 5757 5757 5756 5756 5756 5755 5755 5755 5755 5755 5754 5754 5753 5753 5752 5752 5751 5751 5750 5749 5749 5748 5747
5783 5782 5781 5780 5778 5777 5775 5773 5771 5769 5767 5764 5763 5761 5759 5757 5756 5754 5753 5752 5751 5750 5750 5749 5749 5748 5748 5748 5747 5747 5747 5747 5746 5746 5745 5745 5744 5743 5743 5742 5742 5741 5741
5777 5776 5775 5774 5773 5771 5769 5767 5765 5763 5761 5758 5756 5754 5752 5751 5749 5748 5746 5745 5744 5743 5742 5742 5741 5741 5740 5740 5740 5740 5739 5739 5739 5739 5738 5737 5737 5736 5735 5735 5734 5734 5733
5772 5770 5769 5768 5767 5765 5763 5761 5759 5757 5754 5752 5750 5748 5746 5744 5742 5741 5739 5738 5737 5736 5735 5734 5733 5733 5733 5732 5732 5732 5732 5731 5731 5730 5730 5730 5729 5728 5728 5727 5727 5726 5726
5766 5764 5763 5762 5760 5759 5757 5755 5752 5750 5748 5745 5743 5741 5739 5737 5735 5733 5732 5730 5729 5728 5727 5726 5726 5725 5725 5724 5724 5724 5724 5723 5722 5722 5721 5721 5720 5720 5719 5719 5718 5718 5718
5759 5758 5756 5755 5754 5752 5750 5748 5746 5744 5741 5739 5736 5734 5731 5729 5727 5725 5724 5722 5722 5721 5719 5718 5718 5717 5716 5716 5715 5715 5715 5714 5714 5713 5713 5712 5711 5711 5710 5710 5710 5710 5709
5752 5751 5749 5748 5746 5745 5743 5741 5739 5737 5734 5731 5729 5727 5724 5721 5719 5717 5715 5714 5713 5712 5711 5710 5709 5708 5707 5706 5706 5706 5706 5705 5705 5704 5703 5703 5702 5701 5701 5701 5700 5700 5701
5745 5744 5742 5740 5739 5737 5735 5733 5731 5729 5727 5724 5721 5719 5716 5713 5711 5708 5706 5705 5703 5702 5701 5700 5699 5698 5697 5697 5696 5696 5695 5695 5694 5694 5694 5693 5692 5692 5691 5691 5691 5691 5691
5737 5735 5734 5732 5731 5729 5727 5725 5723 5721 5719 5716 5713 5711 5708 5705 5703 5700 5698 5696 5694 5693 5692 5690 5689 5688 5688 5687 5686 5686 5685 5684 5684 5684 5683 5683 5682 5681 5681 5681 5681 5681 5681
5729 5727 5726 5724 5722 5721 5719 5717 5715 5712 5710 5707 5705 5702 5699 5697 5694 5691 5689 5687 5685 5683 5682 5680 5679 5678 5677 5676 5676 5675 5674 5674 5673 5673 5672 5672 5671 5671 5670 5670 5670 5670 5670
5720 5719 5717 5715 5714 5712 5710 5708 5706 5703 5701 5698 5696 5693 5690 5688 5685 5683 5680 5677 5675 5674 5672 5670 5669 5667 5666 5666 5665 5664 5664 5663 5662 5662 5661 5660 5660 5659 5659 5659 5659 5659 5659
5711 5710 5708 5707 5705 5703 5701 5699 5696 5694 5691 5688 5686 5683 5681 5678 5676 5673 5671 5668 5665 5663 5662 5660 5658 5657 5656 5655 5654 5653 5653 5652 5651 5651 5650 5649 5649 5649 5648 5648 5648 5648 5649
5702 5701 5699 5697 5696 5693 5691 5689 5687 5684 5682 5679 5676 5674 5671 5669 5666 5663 5660 5658 5655 5653 5651 5650 5648 5646 5645 5644 5643 5643 5642 5641 5640 5640 5639 5638 5638 5638 5637 5637 5637 5638 5638
5693 5691 5690 5688 5686 5684 5681 5679 5677 5674 5672 5669 5667 5664 5661 5658 5656 5653 5650 5647 5645 5643 5641 5639 5637 5636 5635 5634 5633 5632 5631 5631 5630 5629 5628 5628 5627 5627 5627 5626 5626 5626 5626
5683 5681 5680 5678 5676 5673 5671 5669 5666 5664 5662 5659 5657 5654 5651 5648 5645 5643 5640 5637 5635 5633 5631 5629 5627 5625 5624 5623 5623 5622 5621 5620 5619 5618 5618 5617 5617 5616 5616 5616 5615 5615 5615
5673 5671 5669 5667 5665 5663 5661 5658 5656 5653 5651 5649 5647 5644 5642 5639 5636 5633 5630 5627 5625 5622 5620 5618 5617 5615 5614 5613 5612 5611 5610 5609 5608 5608 5607 5606 5606 5605 5605 5605 5605 5604 5604
5662 5660 5659 5657 5655 5653 5650 5648 5645 5643 5641 5638 5636 5634 5631 5629 5626 5624 5621 5618 5615 5613 5610 5608 5607 5605 5603 5602 5601 5600 5599 5598 5597 5597 5596 5595 5595 5594 5594 5594 5594 5594 5594
5651 5650 5648 5646 5644 5642 5640 5638 5635 5633 5630 5628 5626 5624 5621 5619 5617 5614 5611 5608 5606 5603 5600 5598 5596 5595 5593 5592 5590 5589 5589 5588 5587 5586 5585 5584 5584 5584 5584 5583 5583 5583 5583
5641 5639 5637 5636 5634 5632 5630 5627 5625 5623 5621 5618 5616 5614 5611 5609 5607 5604 5601 5598 5596 5593 5590 5588 5586 5584 5583 5581 5580 5579 5578 5577 5576 5575 5574 5573 5573 5573 5573 5573 5573 5573 5573
5630 5629 5627 5625 5623 5621 5619 5617 5615 5613 5610 5608 5606 5604 5601 5599 5596 5594 5591 5588 5585 5583 5580 5578 5576 5574 5573 5571 5570 5568 5567 5567 5565 5564 5563 5563 5563 5562 5562 5562 5562 5562 5562
5619 5618 5616 5615 5613 5611 5609 5607 5605 5603 5600 5598 5596 5594 5591 5589 5586 5583 5580 5578 5575 5572 5570 5568 5566 5564 5563 5561 5560 5558 5557 5556 5555 5554 5553 5552 5552 5552 5551 5551 5551 5551 5551
5609 5607 5606 5604 5602 5601 5599 5597 5595 5593 5591 5588 5586 5583 5581 5578 5575 5573 5570 5567 5565 5562 5559 5557 5556 5554 5552 5551 5550 5548 5547 5546 5544 5543 5542 5542 5541 5541 5540 5540 5540 5540 5540